Location: Wells
(51.2093°N, 2.6446°W)
Time: 09:20:09
(UTC+01:00)

SO-50 - Pass Details

Date: 20 March 2026
Orbit: 567 x 673 km, 64.6° (Epoch: 17 April)

Event Time Altitude Azimuth Distance (km) Brightness Sun altitude
Rises 21:27:44 0° 305° (NW) 3,014 ? -27.4°
Reaches altitude 10° 21:30:49 10° 326° (NW) 2,110 ? -27.7°
Maximum altitude 21:33:59 17° 7° (N) 1,688 ? -28.1°
Enters shadow 21:35:45 14° 33° (NNE) 1,834 ? -28.3°
